Tracking 32936 objects as of 17-Jan-2026
HD Live streaming from Space Station
objects crossing your sky now

CZ-3B R/B

Track CZ-3B R/B now!
10-day predictions


NORAD ID: 63525
Int'l Code: 2025-073B
Perigee: 190.2 km
Apogee: 24,960.0 km
Inclination: 19.3 °
Period: 432.6 minutes
Semi major axis: 18946 km
RCS: Unknown
Launch date: April 10, 2025
Source: People's Republic of China (PRC)
Launch site: Xichang Space Center, China (XSC)

Note: This is a ROCKET BODY
Your satellite tracking list
Your tracking list is empty




NASA's NSSDC Master Catalog

Two Line Element Set (TLE):
1 63525U 25073B   26016.42836325  .00034083 -28696-6  91920-3 0  9996
2 63525  19.3170 301.1407 6536924  89.6541 339.3485  3.32907980  7955
Source of the keplerian elements: AFSPC